Weather History for Mammoth, CA

Change the Weather History Date:

Sunday, October 13, 2013

  Actual Average Record
Temperature  
Mean Temperature 42 °F -  
Max Temperature 55 °F 59 °F 75 °F (2001)
Min Temperature 28 °F 39 °F 17 °F (2008)
Degree Days  
Heating Degree Days 22    
Moisture  
Dew Point 22 °F    
Average Humidity 50    
Maximum Humidity 80    
Minimum Humidity 23    
Precipitation  
Precipitation 0.00 in - - ()
Sea Level Pressure  
Sea Level Pressure 30.07 in    
Wind  
Wind Speed 6 mph (WNW)    
Max Wind Speed 16 mph    
Max Gust Speed 25 mph    
Visibility 10 miles    
Events      
Averages and records for this station are not official NWS values.
T = Trace of Precipitation, MM = Missing Value Source: NWS Daily Summary

Daily Weather History Graph

Daily Weather History Graph

Search for Another Location

Airport:

Trip Planner

Search our weather history database for the weather conditions in past years. The results will help you decide how hot, cold, wet, or windy it might be!

Date:

Astronomy

Oct. 13, 2013 Rise Set
Actual Time 7:02 AM PDT 6:20 PM PDT
Civil Twilight 6:35 AM PDT 6:46 PM PDT
Nautical Twilight 6:05 AM PDT 7:16 PM PDT
Astronomical Twilight 5:34 AM PDT 7:47 PM PDT
Moon 3:09 PM PDT (10/13) 1:23 AM PDT (10/13)
Length of Visible Light 12h 10m
Length of Day
11h 18m
Waxing Gibbous, 70% of the Moon is Illuminated
Oct 13
Waxing Gibbous
Oct 18
Full
Oct 26
Last Quarter
Nov 3
New
Nov 9
First Quarter

Hourly Weather History & Observations

Time (PDT) Temp. Windchill Dew Point Humidity Pressure Visibility Wind Dir Wind Speed Gust Speed Precip Events Conditions
12:15 AM 41.0 °F 38.0 °F 23.0 °F 49% 29.97 in 10.0 mi ENE 4.6 mph 24.2 mph N/A   Clear
12:35 AM 37.4 °F 34.9 °F 24.8 °F 60% 29.98 in 10.0 mi SW 3.5 mph - N/A   Clear
12:55 AM 33.8 °F - 23.0 °F 65% 29.98 in 10.0 mi Calm Calm - N/A   Clear
1:15 AM 35.6 °F 31.7 °F 21.2 °F 56% 29.97 in 10.0 mi WSW 4.6 mph - N/A   Clear
1:35 AM 37.4 °F - 21.2 °F 52% 29.97 in 10.0 mi Calm Calm - N/A   Clear
1:55 AM 37.4 °F 32.1 °F 17.6 °F 45% 29.97 in 10.0 mi West 6.9 mph - N/A   Clear
2:15 AM 39.2 °F 33.6 °F 17.6 °F 42% 29.97 in 10.0 mi WNW 8.1 mph - N/A   Clear
2:35 AM 37.4 °F 29.3 °F 19.4 °F 48% 29.96 in 10.0 mi WNW 12.7 mph - N/A   Clear
2:55 AM 39.2 °F 32.5 °F 23.0 °F 52% 29.97 in 10.0 mi NW 10.4 mph 19.6 mph N/A   Clear
3:15 AM 37.4 °F 30.3 °F 24.8 °F 60% 29.96 in 10.0 mi WNW 10.4 mph 18.4 mph N/A   Clear
3:35 AM 37.4 °F 30.3 °F 24.8 °F 60% 29.96 in 10.0 mi WSW 10.4 mph 25.3 mph N/A   Clear
3:55 AM 37.4 °F - 19.4 °F 48% 29.96 in 10.0 mi Calm Calm - N/A   Clear
4:15 AM 39.2 °F 35.9 °F 19.4 °F 45% 29.96 in 10.0 mi SW 4.6 mph - N/A   Clear
4:35 AM 35.6 °F - 19.4 °F 52% 29.96 in 10.0 mi Calm Calm - N/A   Scattered Clouds
4:55 AM 35.6 °F - 21.2 °F 56% 29.96 in 10.0 mi Calm Calm - N/A   Scattered Clouds
5:15 AM 35.6 °F 31.7 °F 21.2 °F 56% 29.96 in 10.0 mi NW 4.6 mph - N/A   Clear
5:35 AM 35.6 °F 29.9 °F 19.4 °F 52% 29.97 in 10.0 mi WNW 6.9 mph - N/A   Clear
5:55 AM 32.0 °F 28.7 °F 19.4 °F 60% 29.97 in 10.0 mi North 3.5 mph - N/A   Scattered Clouds
6:15 AM 32.0 °F - 19.4 °F 60% 29.99 in 10.0 mi Calm Calm - N/A   Mostly Cloudy
6:35 AM 35.6 °F 27.1 °F 28.4 °F 75% 29.99 in 10.0 mi NW 12.7 mph 20.7 mph N/A   Overcast
6:55 AM 33.8 °F 29.6 °F 24.8 °F 70% 30.00 in 10.0 mi NNW 4.6 mph - N/A   Scattered Clouds
7:15 AM 33.8 °F - 26.6 °F 75% 30.01 in 10.0 mi Calm Calm - N/A   Clear
7:35 AM 35.6 °F 28.6 °F 26.6 °F 70% 30.01 in 10.0 mi WNW 9.2 mph - N/A   Mostly Cloudy
7:55 AM 37.4 °F 28.2 °F 28.4 °F 70% 30.01 in 10.0 mi West 16.1 mph - N/A   Overcast
8:15 AM 37.4 °F 30.3 °F 28.4 °F 70% 30.02 in 10.0 mi WNW 10.4 mph - N/A   Overcast
8:55 AM 42.8 °F 38.6 °F 26.6 °F 53% 30.03 in 10.0 mi WNW 6.9 mph - N/A   Clear
9:15 AM 44.6 °F 40.7 °F 24.8 °F 46% 30.03 in 10.0 mi WNW 6.9 mph - N/A   Clear
9:35 AM 42.8 °F 38.6 °F 23.0 °F 46% 30.04 in 10.0 mi NNW 6.9 mph - N/A   Scattered Clouds
9:55 AM 42.8 °F 35.8 °F 23.0 °F 46% 30.05 in 10.0 mi West 13.8 mph - N/A   Clear
10:15 AM 42.8 °F 35.4 °F 23.0 °F 46% 30.05 in 10.0 mi West 15.0 mph - N/A   Clear
10:35 AM 44.6 °F 38.1 °F 23.0 °F 43% 30.05 in 10.0 mi West 13.8 mph - N/A   Scattered Clouds
10:55 AM 46.4 °F 41.5 °F 21.2 °F 37% 30.05 in 10.0 mi West 10.4 mph - N/A   Mostly Cloudy
11:15 AM 46.4 °F 42.4 °F 21.2 °F 37% 30.05 in 10.0 mi WNW 8.1 mph - N/A   Scattered Clouds
11:35 AM 48.2 °F - 19.4 °F 32% 30.05 in 10.0 mi WNW 6.9 mph - N/A   Mostly Cloudy
11:55 AM 44.6 °F 42.2 °F 21.2 °F 39% 30.06 in 10.0 mi NNW 4.6 mph - N/A   Overcast
12:15 PM 48.2 °F - 19.4 °F 32% 30.06 in 10.0 mi WNW 3.5 mph - N/A   Overcast
12:35 PM 48.2 °F - 19.4 °F 32% 30.06 in 10.0 mi SSW 6.9 mph - N/A   Mostly Cloudy
12:55 PM 48.2 °F - 19.4 °F 32% 30.05 in 10.0 mi SSW 9.2 mph 16.1 mph N/A   Mostly Cloudy
1:15 PM 50.0 °F - 17.6 °F 28% 30.06 in 10.0 mi WNW 9.2 mph - N/A   Overcast
1:35 PM 51.8 °F - 15.8 °F 24% 30.06 in 10.0 mi NW 5.8 mph - N/A   Overcast
1:55 PM 55.4 °F - 17.6 °F 23% 30.06 in 10.0 mi North 13.8 mph 18.4 mph N/A   Mostly Cloudy
2:15 PM 50.0 °F - 17.6 °F 28% 30.06 in 10.0 mi West 3.5 mph - N/A   Scattered Clouds
2:35 PM 51.8 °F - 17.6 °F 26% 30.07 in 10.0 mi West 4.6 mph - N/A   Scattered Clouds
2:55 PM 51.8 °F - 15.8 °F 24% 30.07 in 10.0 mi NNW 8.1 mph 16.1 mph N/A   Scattered Clouds
3:15 PM 48.2 °F - 17.6 °F 30% 30.07 in 10.0 mi WNW 6.9 mph - N/A   Scattered Clouds
3:35 PM 53.6 °F - 17.6 °F 24% 30.08 in 10.0 mi NW 15.0 mph - N/A   Scattered Clouds
3:55 PM 48.2 °F - 17.6 °F 30% 30.09 in 10.0 mi West 5.8 mph - N/A   Scattered Clouds
4:15 PM 48.2 °F - 15.8 °F 27% 30.09 in 10.0 mi NW 5.8 mph - N/A   Clear
4:35 PM 50.0 °F - 17.6 °F 28% 30.09 in 10.0 mi North 4.6 mph - N/A   Clear
4:55 PM 51.8 °F - 17.6 °F 26% 30.10 in 10.0 mi NNW 11.5 mph - N/A   Clear
5:15 PM 50.0 °F - 19.4 °F 30% 30.11 in 10.0 mi NNW 9.2 mph - N/A   Clear
5:35 PM 48.2 °F - 21.2 °F 34% 30.12 in 10.0 mi North 11.5 mph - N/A   Clear
5:55 PM 48.2 °F - 21.2 °F 34% 30.13 in 10.0 mi NNW 10.4 mph - N/A   Clear
6:15 PM 44.6 °F 40.2 °F 23.0 °F 43% 30.14 in 10.0 mi NNW 8.1 mph - N/A   Clear
6:35 PM 41.0 °F 39.0 °F 21.2 °F 45% 30.15 in 10.0 mi NW 3.5 mph - N/A   Clear
6:55 PM 41.0 °F 38.0 °F 23.0 °F 49% 30.16 in 10.0 mi WNW 4.6 mph - N/A   Clear
7:15 PM 41.0 °F 35.8 °F 24.8 °F 53% 30.17 in 10.0 mi NNW 8.1 mph - N/A   Clear
7:35 PM 37.4 °F 34.9 °F 23.0 °F 56% 30.17 in 10.0 mi West 3.5 mph - N/A   Clear
7:55 PM 37.4 °F 32.1 °F 24.8 °F 60% 30.18 in 10.0 mi WSW 6.9 mph - N/A   Clear
8:15 PM 37.4 °F 30.8 °F 24.8 °F 60% 30.19 in 10.0 mi West 9.2 mph - N/A   Clear
8:35 PM 35.6 °F 28.0 °F 24.8 °F 65% 30.20 in 10.0 mi West 10.4 mph - N/A   Clear
8:55 PM 35.6 °F 29.9 °F 24.8 °F 65% 30.20 in 10.0 mi West 6.9 mph - N/A   Clear
9:15 PM 35.6 °F 28.0 °F 24.8 °F 65% 30.21 in 10.0 mi West 10.4 mph - N/A   Clear
9:35 PM 33.8 °F 27.0 °F 24.8 °F 70% 30.22 in 10.0 mi WNW 8.1 mph - N/A   Clear
9:55 PM 32.0 °F 24.2 °F 24.8 °F 75% 30.22 in 10.0 mi West 9.2 mph - N/A   Clear
10:15 PM 32.0 °F 25.6 °F 24.8 °F 75% 30.23 in 10.0 mi WNW 6.9 mph - N/A   Clear
10:35 PM 32.0 °F 24.8 °F 24.8 °F 75% 30.23 in 10.0 mi West 8.1 mph - N/A   Clear
10:55 PM 32.0 °F 23.6 °F 24.8 °F 75% 30.24 in 10.0 mi West 10.4 mph - N/A   Clear
11:15 PM 30.2 °F 21.3 °F 24.8 °F 80% 30.24 in 10.0 mi West 10.4 mph - N/A   Clear
11:35 PM 32.0 °F 24.2 °F 24.8 °F 75% 30.24 in 10.0 mi West 9.2 mph - N/A   Clear
11:55 PM 28.4 °F 23.3 °F 23.0 °F 80% 30.24 in 10.0 mi WNW 4.6 mph - N/A   Clear